SHIYAN 20C (SY-20C) (54214 NORAD) Tracking and Keplerian Element Data

This shows tracking and keplerian element data for the satellite.

Feedback or suggestion? Click here.




ElementValue
Catalog54214
NameSHIYAN 20C (SY-20C)
Epoch Orbit1097
Epoch Day13.80189902
Epoch Year2023
RAAN109.9395
Inclination59.996
Eccentricity0.0018732
Argument of Perigee19.164
Mean Anonmoly341.0092
Mean Motion14.2868726
Decay Rate2.14E-06
L11 54214U 22142A 23013.80189902 .00000214 00000+0 13863-3 0 9993
L22 54214 59.9960 109.9395 0018732 19.1640 341.0092 14.28687260 10974



Live tracking and technical data element details for SHIYAN 20C (SY-20C) (NORAD 54214). SHIYAN 20C (SY-20C) can be tracked NOW for your location showing map with azimuth and elevation plus other details from your city location.







IsCatalogInMostPopularTable: catalog: 54214, numindb: 11
Update: records affected: 1



GetName: 54214 SHIYAN 20C (SY-20C)

Hit Count: updated at: Fri, 27 Jan 2023 20:51:16 GMT